TimeEDT,TemperatureF,Dew PointF,Humidity,Sea Level PressureIn,VisibilityMPH,Wind Direction,Wind SpeedMPH,Gust SpeedMPH,PrecipitationIn,Events,Conditions,WindDirDegrees,DateUTC
12:53 AM,82.9,73.0,72,29.96,10.0,SW,8.1,-,N/A,,Clear,220,2013-07-19 04:53:00
1:53 AM,81.0,73.0,77,29.95,10.0,SW,9.2,-,N/A,,Clear,220,2013-07-19 05:53:00
2:53 AM,81.0,72.0,74,29.93,10.0,SW,9.2,-,N/A,,Clear,220,2013-07-19 06:53:00
3:53 AM,80.1,72.0,76,29.91,10.0,SW,9.2,-,N/A,,Clear,220,2013-07-19 07:53:00
4:53 AM,79.0,71.1,77,29.90,9.0,SW,9.2,-,N/A,,Clear,220,2013-07-19 08:53:00
5:53 AM,79.0,71.1,77,29.89,8.0,SW,12.7,-,N/A,,Clear,220,2013-07-19 09:53:00
6:53 AM,79.0,72.0,79,29.90,6.0,SW,9.2,-,N/A,,Haze,220,2013-07-19 10:53:00
7:53 AM,81.0,73.0,77,29.90,8.0,SW,12.7,-,N/A,,Clear,220,2013-07-19 11:53:00
8:53 AM,84.9,73.9,69,29.90,9.0,SW,10.4,-,N/A,,Clear,230,2013-07-19 12:53:00
9:53 AM,88.0,73.9,63,29.90,10.0,WSW,15.0,21.9,N/A,,Clear,240,2013-07-19 13:53:00
10:53 AM,90.0,75.0,61,29.88,10.0,SSW,15.0,-,N/A,,Clear,210,2013-07-19 14:53:00
11:53 AM,91.0,73.9,57,29.87,10.0,SW,16.1,24.2,N/A,,Partly Cloudy,230,2013-07-19 15:53:00
12:53 PM,93.9,73.0,51,29.85,10.0,SW,18.4,28.8,N/A,,Scattered Clouds,230,2013-07-19 16:53:00
1:53 PM,95.0,71.1,46,29.82,10.0,SW,20.7,29.9,N/A,,Scattered Clouds,230,2013-07-19 17:53:00
2:53 PM,96.1,70.0,43,29.79,10.0,SW,19.6,29.9,N/A,,Partly Cloudy,230,2013-07-19 18:53:00
3:53 PM,96.1,70.0,43,29.76,10.0,WSW,21.9,29.9,N/A,,Partly Cloudy,240,2013-07-19 19:53:00
4:53 PM,95.0,70.0,44,29.75,10.0,WSW,19.6,27.6,N/A,,Scattered Clouds,250,2013-07-19 20:53:00
5:53 PM,95.0,70.0,44,29.74,10.0,WSW,20.7,27.6,N/A,,Clear,240,2013-07-19 21:53:00
6:53 PM,91.9,71.1,50,29.74,10.0,WSW,16.1,-,N/A,,Scattered Clouds,240,2013-07-19 22:53:00
7:53 PM,91.0,71.1,52,29.74,10.0,SW,11.5,-,N/A,,Scattered Clouds,230,2013-07-19 23:53:00
8:53 PM,84.0,69.1,61,29.73,10.0,SSW,6.9,-,0.00,,Mostly Cloudy,210,2013-07-20 00:53:00
9:53 PM,82.9,68.0,60,29.73,10.0,SW,18.4,27.6,N/A,,Scattered Clouds,230,2013-07-20 01:53:00
10:53 PM,78.1,71.1,79,29.73,10.0,South,5.8,-,N/A,,Mostly Cloudy,190,2013-07-20 02:53:00
11:53 PM,80.1,73.0,79,29.73,10.0,SW,9.2,-,N/A,,Clear,220,2013-07-20 03:53:00